Dewpoint
59 56 55 55 55 55 58 58 57 57 56 56 57 55 55 53 54 53 55 62 62 61 60 59 59 58 58 58 58 57 56 56 57 57 55 56 57 58 60 63 64 64 64
60 58 56 55 55 56 57 57 56 56 57 56 56 55 54 54 53 53 54 58 61 61 58 58 57 57 58 56 57 56 57 54 57 56 57 56 56 56 58 60 63 63 64
60 58 57 56 55 55 56 57 56 56 57 56 56 55 55 53 53 52 54 55 56 59 60 59 58 58 57 55 57 56 57 56 56 56 55 56 57 56 57 58 59 62 63
60 59 57 56 56 55 56 56 56 56 57 56 56 55 55 54 53 51 52 53 53 54 57 59 58 56 56 56 54 55 55 55 55 55 53 56 56 56 55 55 56 59 62
60 59 58 57 57 56 55 56 56 57 57 56 56 55 54 53 53 52 52 53 54 54 55 57 59 59 57 56 55 55 54 52 53 55 52 55 54 54 57 56 55 57 57
60 60 59 57 58 57 55 57 57 57 57 57 55 55 55 54 54 53 53 53 54 54 52 52 53 54 58 56 55 55 52 52 55 54 52 54 53 53 55 57 56 54 55
59 59 57 57 58 57 55 56 56 57 58 57 56 54 54 54 53 53 54 53 54 54 54 52 52 51 54 58 55 53 51 51 51 51 52 51 52 52 53 55 56 54 54
59 58 56 57 57 57 55 57 57 57 56 57 54 53 52 52 52 52 52 51 52 52 53 53 53 52 52 52 53 55 53 51 50 51 54 51 50 51 52 55 53 55 55
59 58 57 57 57 57 56 58 57 56 55 56 56 52 50 50 51 52 52 52 52 52 51 51 51 52 52 52 52 52 53 54 51 52 51 52 49 50 53 52 51 52 52
59 59 59 58 57 57 55 56 57 57 57 54 55 49 53 51 50 49 52 52 51 50 51 50 47 48 50 52 52 51 51 52 53 54 51 51 49 50 53 53 51 53 51
57 58 59 58 57 56 56 55 56 56 56 56 54 50 50 51 51 49 49 50 51 50 50 50 47 45 45 45 47 51 50 53 54 51 51 49 50 49 50 51 49 49 48
57 57 57 58 57 56 55 55 54 55 56 55 56 51 50 49 49 48 46 47 49 49 49 49 48 47 48 46 46 47 48 53 54 53 51 51 52 51 51 51 49 48 48
55 56 57 57 56 55 55 55 55 55 55 56 55 54 51 50 48 46 42 43 45 47 49 49 49 48 47 49 48 48 48 51 53 54 52 51 52 50 52 49 49 48 48
55 56 56 56 56 54 53 54 55 55 56 57 55 55 52 50 48 45 42 43 42 45 46 47 49 49 49 49 49 49 47 49 53 54 53 53 54 51 50 50 48 48 47
54 55 56 56 55 53 53 53 53 53 54 56 55 55 52 51 49 46 44 44 43 42 41 45 46 49 50 50 50 48 47 49 51 54 55 55 53 52 50 52 51 49 47
55 55 55 55 55 53 53 53 52 52 52 53 54 54 52 50 48 47 46 45 45 45 42 42 44 47 49 48 49 49 48 48 49 52 54 54 53 52 51 51 52 51 48
54 54 54 54 53 52 52 52 51 51 50 51 53 53 52 51 49 46 47 46 46 46 45 44 44 46 47 48 47 48 48 47 47 50 53 54 53 52 51 52 52 51 49
53 52 53 53 53 52 52 51 51 51 51 50 51 51 51 50 50 49 48 47 47 46 46 45 45 44 45 47 47 48 47 46 47 49 51 54 53 52 51 52 51 51 50
51 50 52 51 51 51 50 49 50 50 49 49 50 50 50 51 50 51 49 49 48 46 46 45 45 44 45 44 45 46 47 47 46 47 51 53 53 52 51 52 51 50 49
49 49 50 51 51 50 51 50 49 49 48 48 49 50 50 50 50 50 49 49 48 47 47 46 45 45 44 43 44 44 45 46 47 45 46 49 51 51 51 51 50 49 48
49 49 49 50 50 50 49 50 50 50 49 48 49 49 49 49 47 49 48 49 48 48 47 46 45 45 44 41 42 44 44 45 45 47 46 47 49 49 50 50 48 47 47
50 50 49 48 48 49 47 48 49 49 49 49 48 49 48 46 47 48 48 48 49 48 48 47 46 45 45 43 43 44 44 44 42 46 45 45 47 48 48 48 48 48 47
52 50 50 49 48 48 47 48 48 49 49 49 49 49 49 48 48 48 48 47 47 48 48 49 47 46 45 45 44 44 44 43 43 44 44 44 45 45 47 46 48 47 48
52 52 50 50 50 50 47 47 47 50 50 49 49 49 49 48 49 49 49 48 48 48 48 47 48 48 47 46 45 44 45 45 42 41 44 43 41 43 44 43 46 47 47
53 53 52 52 51 51 47 47 47 50 49 49 49 49 49 49 48 47 50 49 49 49 48 47 46 46 46 46 45 43 41 39 38 37 40 39 36 38 38 40 42 46 47
52 52 52 52 51 52 47 48 49 51 50 50 50 50 48 50 48 48 50 50 48 49 48 47 47 47 47 47 45 45 42 40 36 36 38 39 35 35 35 36 38 41 44
Lifted_Index
2 3 4 5 6 6 5 5 5 6 6 5 5 6 6 6 7 7 7 6 6 7 7 7 7 7 7 8 8 8 8 8 8 8 8 8 8 7 6 4 3 2 2
2 2 3 5 6 6 6 5 6 6 5 5 6 6 7 7 7 7 7 7 7 7 7 7 8 7 7 8 8 8 8 8 8 8 8 8 8 7 6 5 4 3 2
2 2 2 4 5 6 6 6 6 6 5 5 6 7 7 7 7 7 7 7 8 8 8 8 8 8 8 8 8 8 9 9 9 8 9 8 8 7 7 6 5 4 3
1 2 2 3 4 6 6 6 6 5 5 5 6 7 7 7 8 8 8 8 8 8 8 8 9 9 8 8 9 9 9 9 9 9 9 9 8 8 7 7 6 5 4
1 1 2 2 4 5 6 6 6 5 5 5 6 7 7 8 8 8 8 8 8 8 9 9 10 9 9 9 9 9 10 10 9 9 9 9 9 8 7 7 7 7 6
2 2 2 3 4 6 6 6 6 6 5 5 6 7 7 8 8 8 8 8 8 8 9 10 10 10 10 10 9 10 10 10 10 10 10 10 9 9 8 7 7 7 7
2 2 3 3 5 6 7 7 6 6 6 5 6 7 8 8 8 8 8 8 8 9 9 10 10 10 10 10 10 10 11 11 10 10 10 10 10 9 8 8 8 8 8
3 3 3 4 5 7 8 7 7 6 6 6 6 7 7 8 8 8 8 8 9 9 9 10 10 11 11 11 11 11 11 11 11 10 10 10 10 10 9 9 8 8 8
4 4 4 4 6 7 8 8 7 7 6 6 6 6 7 7 7 7 8 8 8 9 9 10 11 11 11 11 11 11 11 11 11 10 10 10 11 10 10 9 9 9 9
5 5 5 6 6 8 8 8 7 7 6 6 6 6 6 6 7 7 7 8 8 9 9 10 11 12 12 12 12 12 12 12 11 10 10 11 11 11 10 10 10 10 10
6 6 6 6 7 8 8 8 8 7 6 5 6 6 6 6 6 6 7 8 8 8 9 9 10 12 14 14 14 13 13 12 11 11 11 11 11 11 10 11 11 11 11
7 7 7 7 7 7 7 8 8 7 6 6 5 5 5 5 6 7 8 9 9 9 9 9 10 11 13 14 14 15 14 13 11 11 11 11 11 11 11 11 12 12 12
8 8 7 7 7 6 6 7 7 7 6 5 5 5 5 5 6 7 9 10 10 10 9 9 10 11 12 13 14 14 14 13 12 11 11 11 11 11 11 12 12 12 13
8 8 8 7 7 6 6 6 6 7 6 5 5 5 5 5 5 6 8 10 11 11 10 10 10 11 11 12 13 13 14 14 13 12 11 11 11 12 12 12 12 13 13
7 8 8 8 7 7 6 5 6 6 6 5 5 5 5 5 5 6 7 8 9 9 10 10 11 11 11 12 12 12 13 14 13 12 11 11 11 12 12 12 13 13 14
8 8 8 8 8 7 5 4 4 5 6 5 5 5 5 5 5 6 6 7 7 8 9 10 11 11 11 11 11 12 12 13 13 13 12 11 11 12 12 12 13 13 14
8 8 8 8 8 7 5 4 4 4 5 5 5 5 5 4 5 5 5 6 6 7 8 9 10 11 11 11 11 11 11 12 12 12 12 11 11 12 12 12 12 13 13
8 8 8 9 8 7 5 3 3 3 4 4 5 5 4 4 5 5 5 5 6 6 7 8 9 10 10 10 11 11 11 11 12 12 12 11 11 11 12 12 12 13 13
7 8 8 8 8 6 4 3 3 3 3 4 5 5 4 4 5 5 5 5 6 6 7 8 9 9 9 10 10 10 11 11 11 11 11 11 11 11 11 12 12 13 13
7 7 7 7 7 6 4 3 3 3 4 4 5 5 4 5 5 6 6 6 6 7 8 8 9 9 9 9 9 9 10 10 11 11 11 11 10 10 11 12 12 13 13
7 7 7 6 6 6 5 4 4 4 4 4 5 5 5 5 5 6 6 7 7 7 8 8 8 8 8 8 8 9 9 10 10 10 10 10 10 10 11 11 12 12 13
7 7 7 7 6 6 6 5 5 5 4 4 4 5 5 5 6 6 6 6 7 7 8 8 8 8 8 8 8 9 9 9 9 9 9 9 10 10 10 11 11 12 12
6 6 6 6 7 6 6 6 6 5 4 4 4 5 5 6 6 6 6 6 7 7 7 7 7 8 8 8 8 8 9 9 9 9 9 9 9 9 10 10 11 12 12
5 5 5 6 6 6 6 7 6 5 4 4 4 5 5 6 6 6 6 6 6 6 6 5 6 6 7 7 8 8 7 8 8 8 8 8 8 8 9 10 11 12 12
5 5 5 5 5 5 5 5 6 5 4 3 4 4 4 4 4 5 5 5 5 4 4 3 4 5 5 6 6 6 6 6 6 7 8 8 8 8 9 9 10 11 12
4 4 5 5 4 4 4 4 5 5 4 4 4 4 4 4 3 3 3 4 4 3 3 3 3 4 5 5 6 6 5 5 5 6 8 8 8 8 8 9 10 11 11